Station CASM1 - 8418150 - Portland, ME Image indicating link to RSS feed of recent meteorological observations for station CASM1


Conditions at CASM1 as of
(7:18 am EDT)
1118 GMT on 04/21/2024:
     

Click on the graph icon in the table below to see a time series plot of the last five days of that observation.

5-day plot - Wind Direction Wind Direction (WDIR): W ( 260 deg true )
5-day plot - Wind Speed Wind Speed (WSPD): 6.0 kts
5-day plot - Wind Gust Wind Gust (GST): 7.0 kts
5-day plot - Atmospheric Pressure Atmospheric Pressure (PRES):29.90 in
5-day plot - Air Temperature Air Temperature (ATMP): 43.3 °F
5-day plot - Water Temperature Water Temperature (WTMP): 45.0 °F
5-day plot - Wind Chill Wind Chill (CHILL): 39.2 °F
5-day plot - Wind Speed at 10 Meters Wind Speed at 10 meters (WSPD10M): 5.8 kts
5-day plot - Wind Speed at 20 Meters Wind Speed at 20 meters (WSPD20M): 5.8 kts
5-day plot -  Wind Speed, Wind Gust and Atmospheric Pressure Combined plot of Wind Speed, Gust, and Air Pressure
NOS Water Level Observation Network Water Level
Previous observations
TIME
(EDT)
5-day plot - Wind Direction
WDIR
 
5-day plot - Wind Speed
WSPD
kts
5-day plot - Wind Gust
GST
kts
5-day plot - Wave Height
WVHT
ft
5-day plot - Dominant Wave Period
DPD
sec
5-day plot - Average Wave Period
APD
sec
5-day plot - Mean Wave Direction
MWD
 
5-day plot - Atmospheric Pressure
PRES
in
5-day plot - Pressure Tendency
PTDY
in
5-day plot - Air Temperature
ATMP
°F
5-day plot - Water Temperature
WTMP
°F
5-day plot - Dew Point
DEWP
°F
5-day plot - Salinity
SAL
psu
5-day plot - Visibility
VIS
nmi
5-day plot - Tide (above MLLW)
TIDE
ft
2024-04-21 07:12 am W 6.0 8.0----29.89- 43.0 45.1----
2024-04-21 07:06 am W 4.1 7.0----29.89- 43.0 45.3----
2024-04-21 07:00 am W 5.1 7.0----29.89- 42.8 45.5----
2024-04-21 06:54 am W 5.1 6.0----29.88- 42.8 45.5----
2024-04-21 06:48 am W 2.9 4.1----29.88- 42.6 45.3----
2024-04-21 06:42 am W 2.9 5.1----29.88- 42.1 45.1----
2024-04-21 06:36 am W 5.1 7.0----29.88- 41.2 45.0----
2024-04-21 06:30 am W 7.0 8.0----29.88-- 45.0----
2024-04-21 06:24 am W 6.0 8.0----29.88-- 45.0----
2024-04-21 06:18 am W 2.9 5.1----29.88- 41.4 45.0----
2024-04-21 06:12 am W 2.9 5.1----29.89- 41.0 45.0----
2024-04-21 06:06 amWSW 4.1 6.0----29.88- 40.6 45.0----
2024-04-21 06:00 amWSW 5.1 8.9----29.88+0.02 40.5 44.8----
2024-04-21 05:54 am W 5.1 8.0----29.89- 40.3 45.0----
2024-04-21 05:48 am W 1.9 5.1----29.89- 40.3 45.0----
2024-04-21 05:42 amWSW 4.1 6.0----29.88- 40.6 44.8----
2024-04-21 05:36 amWSW 5.1 7.0----29.89- 40.6 44.8----
2024-04-21 05:30 amWSW 6.0 8.0----29.89- 40.5 44.8----
2024-04-21 05:24 am SW 6.0 9.9----29.89- 40.3 44.6----
2024-04-21 05:18 am SW 7.0 8.9----29.89- 40.5 44.6----
2024-04-21 05:12 am SW 8.0 9.9----29.89- 40.5 44.6----
2024-04-21 05:06 am SW 8.0 9.9----29.89- 40.5 44.6----
2024-04-21 05:00 am SW 8.0 11.1----29.89+0.02 40.3 44.6----
2024-04-21 04:54 am SW 6.0 8.0----29.89- 40.1 44.6----
2024-04-21 04:48 am SW 6.0 8.0----29.89- 39.9 44.6----
2024-04-21 04:42 amSSW 5.1 8.0----29.89- 40.1 44.6----
2024-04-21 04:36 am SW 5.1 7.0----29.89- 40.5 44.6----
2024-04-21 04:30 amSSW 5.1 6.0----29.89- 40.6 44.6----
2024-04-21 04:24 am S 4.1 7.0----29.89- 40.8 44.8----
2024-04-21 04:18 am S 6.0 8.0----29.89-- 44.8----
2024-04-21 04:12 am SW 5.1 7.0----29.88-- 44.8----
2024-04-21 04:06 am SW 6.0 8.0----29.88-- 44.8----
2024-04-21 04:00 am S 5.1 6.0------ 41.5 44.8----
2024-04-21 03:54 amSSW 5.1 8.0------ 42.1 44.8----
2024-04-21 03:48 amSSW 7.0 8.0----29.87- 42.1 44.8----
2024-04-21 03:42 am SW 6.0 8.0----29.87- 42.1 44.8----
2024-04-21 03:36 am SW 6.0 7.0----29.87- 42.3 44.8----
2024-04-21 03:30 am SW 6.0 7.0----29.87- 42.6 44.8----
2024-04-21 03:24 amSSW 4.1 5.1----29.87- 43.0 44.8----
2024-04-21 03:18 am S 1.9 7.0----29.87- 42.8 44.8----
2024-04-21 03:12 amWSW 5.1 7.0----29.86- 42.6 44.8----
2024-04-21 03:06 am W 5.1 8.0----29.86- 42.3 45.0----
2024-04-21 03:00 amWNW 4.1 7.0----29.86+0.00 42.6 44.8----
2024-04-21 02:54 am W 5.1 6.0----29.87- 42.3 44.8----
2024-04-21 02:48 amWNW 2.9 4.1----29.87- 42.6 44.8----
2024-04-21 02:42 am W 2.9 6.0----29.86- 42.6 44.8----
2024-04-21 02:36 amWNW 4.1 7.0----29.87- 42.8 44.6----
2024-04-21 02:30 am W 5.1 8.0----29.87- 42.8 44.6----
2024-04-21 02:24 amWNW 6.0 8.0----29.86- 43.0 44.4----
2024-04-21 02:18 am W 7.0 8.9----29.86- 42.8 44.4----
2024-04-21 02:12 am W 6.0 9.9----29.86- 42.6 44.4----
2024-04-21 02:06 am W 5.1 6.0----29.86- 42.6 44.4----
2024-04-21 02:00 am W 2.9 4.1----29.86+0.03 42.6 44.2----
2024-04-21 01:54 am W 1.9 4.1----29.86- 42.8 44.2----
2024-04-21 01:48 am W 4.1 6.0----29.86- 43.0 44.2----
2024-04-21 01:42 am W 5.1 7.0----29.87- 43.2 44.2----
2024-04-21 01:36 am W 5.1 8.0----29.86- 43.2 44.1----
2024-04-21 01:30 am W 5.1 8.0----29.87- 43.3 44.1----
2024-04-21 01:24 amWNW 7.0 8.9----29.87- 43.5 43.9----
2024-04-21 01:18 amWNW 7.0 9.9----29.87- 43.5 43.7----
2024-04-21 01:12 am W 8.0 9.9----29.87- 43.7 43.7----
2024-04-21 01:06 am W 6.0 8.9----29.87- 43.9 43.7----
2024-04-21 01:00 am W 7.0 11.1----29.87+0.05 44.1 43.7----
2024-04-21 12:54 am W 7.0 12.0----29.87- 44.2 43.5----
2024-04-21 12:48 amWNW 8.9 15.0----29.87- 44.4 43.5----
2024-04-21 12:42 am W 11.1 15.0----29.87- 44.4 43.5----
2024-04-21 12:36 am W 9.9 13.0----29.87- 44.6 43.5----
2024-04-21 12:30 amWNW 8.0 12.0----29.87- 44.8 43.5----
2024-04-21 12:24 amWNW 8.0 12.0----29.87- 45.0 43.5----
2024-04-21 12:18 am W 8.9 12.0----29.87- 45.1 43.5----
2024-04-21 12:12 am W 13.0 17.1----29.86- 45.5 43.7----
2024-04-21 12:06 am W 8.0 12.0----29.86- 45.9 43.7----
2024-04-21 12:00 am W 12.0 17.1----29.86+0.04 46.0 43.7----
2024-04-20 11:54 pm W 7.0 13.0----29.86- 46.0 43.7----
2024-04-20 11:48 pm W 9.9 15.0----29.85- 46.4 43.7----
2024-04-20 11:42 pm W 8.9 13.0----29.85- 46.6 43.5----
2024-04-20 11:36 pmWNW 9.9 15.9----29.85- 46.8 43.7----
2024-04-20 11:30 pm W 8.0 12.0----29.85- 46.9 43.7----
2024-04-20 11:24 pm W 8.0 11.1----29.85- 47.1 43.7----
2024-04-20 11:18 pmWNW 7.0 11.1----29.84- 47.5 43.7----
2024-04-20 11:12 pm W 8.0 11.1----29.84- 47.7 43.9----
2024-04-20 11:06 pmWNW 8.0 12.0----29.84- 48.0 43.7----
2024-04-20 11:00 pmWNW 8.0 12.0----29.83+0.06 48.2 43.9----
2024-04-20 10:54 pm W 6.0 9.9----29.83- 48.6 43.9----
2024-04-20 10:48 pmWNW 8.0 12.0----29.83- 49.1 44.1----
2024-04-20 10:42 pm W 8.0 12.0----29.83- 49.5 44.1----
2024-04-20 10:36 pm W 8.0 13.0----29.83- 49.8 44.1----
2024-04-20 10:30 pm W 6.0 9.9----29.82- 49.8 44.1----
2024-04-20 10:24 pm W 7.0 9.9----29.82- 50.0 44.1----
2024-04-20 10:18 pm W 7.0 8.9----29.82- 50.2 44.2----
2024-04-20 10:12 pm W 6.0 8.9----29.82- 50.2 44.2----
2024-04-20 10:06 pm W 6.0 8.0----29.82- 50.2 44.2----
2024-04-20 10:00 pm W 5.1 8.0----29.82+0.07 50.2 44.2----
2024-04-20 09:54 pm W 4.1 8.9----29.82- 50.4 44.2----
2024-04-20 09:48 pm W 7.0 11.1----29.82- 50.5 44.2----
2024-04-20 09:42 pm W 8.9 13.0----29.82- 50.7 44.2----
2024-04-20 09:36 pm W 11.1 15.0----29.82- 50.9 44.2----
2024-04-20 09:30 pm W 12.0 18.1----29.82- 51.1 44.2----
2024-04-20 09:24 pmWSW 12.0 17.1----29.82- 51.4 44.1----
2024-04-20 09:18 pmWSW 8.9 19.0----29.82- 51.4 44.1----
2024-04-20 09:12 pm W 11.1 17.1----29.82- 51.4 44.1----
2024-04-20 09:06 pmWSW 8.9 14.0----29.82- 51.3 44.1----
2024-04-20 09:00 pmWSW 8.9 15.0----29.81+0.06 50.4 44.1----
2024-04-20 08:54 pmWSW 5.1 7.0----29.81- 49.1 44.1----
2024-04-20 08:48 pmWSW 4.1 7.0----29.80- 48.4 43.9----
2024-04-20 08:42 pmWSW 5.1 8.0----29.80- 48.0 43.7----
2024-04-20 08:36 pmWNW 2.9 8.9----29.80- 47.8 43.9----
2024-04-20 08:30 pm NW 8.9 18.1----29.80- 47.7 43.9----
2024-04-20 08:24 pm W 4.1 6.0----29.79- 47.5 44.1----
2024-04-20 08:18 pm S 1.9 5.1------ 47.1 44.1----
2024-04-20 08:12 pm SW 1.9 2.9------ 46.8 44.2----
2024-04-20 08:06 pmSSE 1.9 1.9------ 46.6 44.2----
2024-04-20 08:00 pmESE 1.0 2.9----29.77+0.02 46.4 44.2----
2024-04-20 07:54 pm- 0.0 1.9----29.76- 46.2 44.2----
2024-04-20 07:48 pm SE 1.9 4.1----29.76-- 44.4----
2024-04-20 07:42 pm SE 4.1 6.0----29.76-- 44.6----
2024-04-20 07:36 pmESE 5.1 6.0----29.75-- 44.6----
2024-04-20 07:30 pmESE 4.1 5.1----29.75- 45.9 44.8----
2024-04-20 07:24 pmESE 2.9 5.1----29.75- 46.0 45.0----
2024-04-20 07:00 pmESE 4.1 6.0----29.75-0.01 46.9 45.0----
2024-04-20 06:54 pm E 5.1 6.0----29.75- 47.1 45.1----
2024-04-20 06:48 pmESE 6.0 8.0----29.74- 47.1 45.3----
2024-04-20 06:42 pm E 7.0 8.9----29.74- 47.1 45.5----
2024-04-20 06:36 pmESE 7.0 8.9----29.74- 47.3 45.3----
2024-04-20 06:30 pm E 8.0 8.0----29.75- 47.7 45.5----
2024-04-20 06:24 pm E 6.0 8.0----29.75- 48.2 45.5----
2024-04-20 06:18 pm E 6.0 8.0----29.75- 48.4 45.3----
2024-04-20 06:12 pm E 6.0 7.0----29.75- 48.7 45.5----
2024-04-20 06:06 pm NE 4.1 5.1----29.75- 49.1 45.7----
2024-04-20 06:00 pm-------29.75-0.01 49.1 45.9----
2024-04-20 05:54 pm-------29.75- 48.9 46.0----
2024-04-20 05:48 pm NE 2.9 5.1----29.75- 48.9 46.0----
2024-04-20 05:42 pm NE 5.1 7.0----29.75- 48.7 46.0----
2024-04-20 05:36 pmNNE 6.0 8.0----29.74- 49.1 45.9----
2024-04-20 05:30 pmNNE 7.0 8.0----29.74- 49.8 46.0----
2024-04-20 05:24 pmNNE 5.1 6.0----29.74- 49.1 46.2----
2024-04-20 05:18 pmNNE 6.0 7.0----29.74- 49.1 46.4----
2024-04-20 05:12 pmNNE 7.0 8.9----29.74- 49.3 46.2----
2024-04-20 05:06 pm N 5.1 7.0----29.74- 49.1 46.2----
2024-04-20 05:00 pm NE 5.1 6.0----29.74-0.04 49.1 46.0----
2024-04-20 04:54 pm NE 5.1 6.0----29.75- 49.1 46.0----
2024-04-20 04:48 pm NE 5.1 6.0----29.75-- 46.0----
2024-04-20 04:42 pm NE 6.0 7.0----29.75-- 46.0----
2024-04-20 04:36 pm NE 6.0 8.0----29.75-- 46.0----
2024-04-20 04:30 pm NE 7.0 7.0----29.76- 48.7 46.0----
2024-04-20 04:24 pm NE 6.0 7.0----29.76- 48.6 46.0----
2024-04-20 04:18 pm NE 6.0 7.0------ 48.7 46.0----
2024-04-20 04:12 pmNNE 6.0 7.0------ 49.1 45.9----
2024-04-20 04:06 pmNNE 5.1 6.0------ 49.1 45.9----
2024-04-20 04:00 pm-------29.76-0.04 49.1 45.7----
2024-04-20 03:54 pm-------29.76- 49.1 45.5----
2024-04-20 03:48 pmNNE 4.1 5.1----29.76- 49.8 45.3----
2024-04-20 03:42 pm N 2.9 6.0----29.76- 50.2 45.1----
2024-04-20 03:36 pm N 6.0 8.0----29.76- 50.2 45.1----
2024-04-20 03:30 pm N 7.0 8.9----29.77- 50.4 45.1----
2024-04-20 03:24 pm N 6.0 9.9----29.77- 50.4 45.1----
2024-04-20 03:18 pm N 6.0 9.9----29.77- 50.7 45.3----
2024-04-20 03:12 pm NW 5.1 8.0----29.77- 51.6 45.1----
2024-04-20 03:06 pmSSW 7.0 7.0----29.76- 51.3 45.1----
2024-04-20 03:00 pm S 4.1 5.1----29.76-0.07------
2024-04-20 02:54 pm S 4.1 6.0----29.76-------
2024-04-20 02:48 pmSSW 6.0 7.0----29.77- 51.8 45.3----
2024-04-20 02:42 pmSSW 6.0 7.0----29.77- 51.6 45.1----
2024-04-20 02:36 pm S 7.0 7.0----29.78- 51.8 45.3----
2024-04-20 02:30 pm S 4.1 6.0------ 52.2 45.1----
2024-04-20 02:24 pm S 5.1 7.0------ 52.2 45.1----
2024-04-20 02:18 pm S 6.0 7.0----29.78- 52.3 45.0----
2024-04-20 02:12 pm S 5.1 6.0----29.78- 52.5 44.8----
2024-04-20 02:06 pm S 6.0 7.0----29.78- 52.9 44.6----
2024-04-20 02:00 pmSSE 6.0 7.0----29.78-0.08 52.9 44.6----
2024-04-20 01:54 pm S 6.0 8.0----29.79- 52.5 44.4----
2024-04-20 01:48 pm S 7.0 8.0----29.79- 52.3 44.2----
2024-04-20 01:42 pm S 6.0 8.0----29.79- 53.1 44.2----
2024-04-20 01:36 pm S 5.1 6.0----29.79- 53.2 44.4----
2024-04-20 01:30 pmSSW 6.0 7.0----29.79- 53.1 44.2----
2024-04-20 01:24 pmSSW 5.1 7.0----29.80- 52.9 44.2----
2024-04-20 01:18 pmSSW 5.1 6.0----29.80- 52.3 44.2----
2024-04-20 01:12 pmSSW 5.1 6.0----29.80- 51.8 44.1----
2024-04-20 01:06 pmSSW 5.1 8.0----29.80- 50.9 43.9----
2024-04-20 01:00 pmSSW 6.0 8.0----29.81-0.06 50.4 43.9----
2024-04-20 12:54 pmSSW 8.0 9.9----29.81- 49.5 43.9----
2024-04-20 12:48 pmSSW 8.9 11.1----29.82- 49.1 43.9----
2024-04-20 12:42 pmSSW 9.9 12.0----29.82- 48.7 43.9----
2024-04-20 12:36 pm S 12.0 13.0----29.82- 48.9 43.7----
2024-04-20 12:30 pm S 8.9 12.0----29.83- 48.6 43.5----
2024-04-20 12:24 pm S 9.9 12.0----29.83- 48.4 43.5----
2024-04-20 12:18 pmSSW 11.1 13.0----29.83- 48.2 43.5----
2024-04-20 12:12 pmSSW 11.1 12.0----29.83- 48.4 43.5----
2024-04-20 12:06 pmSSW 8.0 9.9----29.83- 48.6 43.3----
2024-04-20 12:00 pm S 8.0 8.9----29.83-0.06 48.9 43.5----
2024-04-20 11:54 am S 7.0 7.0----29.82- 48.7 43.5----
2024-04-20 11:48 am S 6.0 8.0----29.83- 48.6 43.5----
2024-04-20 11:42 amSSE 5.1 6.0----29.83- 48.4 43.7----
2024-04-20 11:36 am S 5.1 7.0----29.83- 48.0 43.7----
2024-04-20 11:30 am S 5.1 7.0----29.83- 47.8 43.7----
2024-04-20 11:24 am S 6.0 8.9----29.83- 47.8 43.7----
2024-04-20 11:18 am S 7.0 8.0----29.84- 47.5 43.5----
2024-04-20 11:12 am S 7.0 8.0----29.85- 47.5 43.5----
2024-04-20 11:06 amSSW 7.0 9.9----29.85- 47.5 43.5----
2024-04-20 11:00 amSSW 8.0 9.9----29.86-0.04 47.3 43.5----
2024-04-20 10:54 amSSW 8.9 11.1----29.86- 47.3 43.7----
2024-04-20 10:48 amSSW 7.0 8.9----29.86- 47.3 43.7----
2024-04-20 10:42 amSSW 8.0 9.9----29.87- 47.3 43.7----
2024-04-20 10:36 amSSW 8.0 9.9----29.87- 47.3 43.7----
2024-04-20 10:30 am SW 7.0 11.1----29.87- 47.3 43.9----
2024-04-20 10:24 amSSW 8.0 11.1----29.87- 47.1 43.9----
2024-04-20 10:18 am S 8.0 8.9----29.87- 46.9 43.9----
2024-04-20 10:12 am S 7.0 8.9----29.86- 46.9 43.9----
2024-04-20 10:06 amSSW 7.0 9.9----29.87- 46.8 43.9----
2024-04-20 10:00 amSSW 6.0 8.0----29.87-0.03 46.9 43.9----
2024-04-20 09:54 amSSW 7.0 8.9----29.88- 46.9 43.7----
2024-04-20 09:48 amSSW 7.0 9.9----29.88-- 43.7----
2024-04-20 09:42 amSSW 8.0 9.9----29.88-- 43.7----
2024-04-20 09:36 am S 8.0 8.9----29.88-- 43.9----
2024-04-20 09:30 amSSW 7.0 8.9----29.88- 46.4 43.9----
2024-04-20 09:24 am S 7.0 8.0----29.87- 46.2 44.1----
2024-04-20 09:18 amSSW 6.0 11.1----29.88- 46.4 44.1----
2024-04-20 09:12 amWSW 8.0 14.0----29.89- 46.4 44.2----
2024-04-20 09:06 am SW 7.0 14.0----29.90- 46.4 44.2----
2024-04-20 09:00 am SW 11.1 14.0----29.89-0.01 46.4 44.2----
2024-04-20 08:54 amSSW 9.9 12.0----29.88- 45.9 44.2----
2024-04-20 08:48 am S 6.0 8.9----29.87- 45.9 44.2----
2024-04-20 08:42 am S 7.0 9.9----29.88- 45.9 44.2----
2024-04-20 08:36 amSSE 8.9 12.0----29.87- 45.7 44.1----
2024-04-20 08:30 amSSE 8.0 9.9----29.88- 45.7 44.1----
2024-04-20 08:24 am S 7.0 8.9----29.89- 45.7 44.1----
2024-04-20 08:18 am S 7.0 8.0----29.90- 45.7 44.1----
2024-04-20 08:12 amSSW 7.0 8.9----29.90- 45.7 44.2----
2024-04-20 08:06 am S 8.9 9.9----29.89- 45.5 44.1----
2024-04-20 08:00 amSSW 7.0 8.9----29.90-0.01 45.5 43.9----
2024-04-20 07:54 amSSW 6.0 8.0----29.90- 45.5 43.9----
2024-04-20 07:48 amSSW 6.0 7.0----29.90- 45.5 43.9----
2024-04-20 07:42 amSSW 6.0 8.0----29.90- 45.5 43.9----
2024-04-20 07:36 am S 5.1 6.0----29.89- 45.3 43.9----
2024-04-20 07:30 amSSW 5.1 7.0----29.90- 45.3 44.2----
2024-04-20 07:24 amSSW 5.1 8.0----29.90- 45.3 44.4----
2024-04-20 07:18 amSSW 7.0 8.0----29.91- 45.5 44.4----
2024-04-20 07:12 amSSW 7.0 8.0----29.91- 45.5 44.4----
2024-04-20 07:06 am S 7.0 7.0----29.90- 45.3 44.4----
2024-04-20 07:00 am S 8.0 9.9----29.90-0.03 45.3 44.6----
2024-04-20 06:54 am S 7.0 8.9----29.91- 45.3 44.6----